Time,TemperatureF,DewpointF,PressureIn,WindDirection,WindDirectionDegrees,WindSpeedMPH,WindSpeedGustMPH,Humidity,HourlyPrecipIn,Conditions,Clouds,dailyrainin,SoftwareType,DateUTC
2013-01-21 00:03:00,-14.0,-20.0,-100.00,WNW,295,10.0,14.0,73,-99.99,,,-99.99,,2013-01-21 06:03:00,
2013-01-21 00:12:00,-14.0,-20.0,-100.00,WNW,295,10.0,14.0,73,-99.99,,,-99.99,,2013-01-21 06:12:00,
2013-01-21 00:23:00,-14.0,-20.0,-100.00,WNW,295,10.0,14.0,73,-99.99,,,-99.99,,2013-01-21 06:23:00,
2013-01-21 00:33:00,-15.0,-21.0,-100.00,WNW,295,10.0,14.0,74,-99.99,,,-99.99,,2013-01-21 06:33:00,
2013-01-21 00:43:00,-15.0,-21.0,-100.00,WNW,295,10.0,14.0,74,-99.99,,,-99.99,,2013-01-21 06:43:00,
2013-01-21 00:53:00,-15.0,-21.0,-100.00,WNW,295,10.0,14.0,74,-99.99,,,-99.99,,2013-01-21 06:53:00,
2013-01-21 01:03:00,-15.0,-21.0,-100.00,WNW,295,10.0,14.0,74,-99.99,,,-99.99,,2013-01-21 07:03:00,
2013-01-21 01:13:00,-15.0,-21.0,-100.00,WNW,295,10.0,14.0,74,-99.99,,,-99.99,,2013-01-21 07:13:00,
2013-01-21 01:22:00,-15.0,-21.0,-100.00,WNW,295,10.0,14.0,74,-99.99,,,-99.99,,2013-01-21 07:22:00,
2013-01-21 01:33:00,-16.0,-21.0,-100.00,North,-999,-999.0,-999.0,76,-99.99,,,-99.99,,2013-01-21 07:33:00,
2013-01-21 01:42:00,-16.0,-21.0,-100.00,North,-999,-999.0,-999.0,76,-99.99,,,-99.99,,2013-01-21 07:42:00,
2013-01-21 01:53:00,-16.0,-21.0,-100.00,North,-999,-999.0,-999.0,76,-99.99,,,-99.99,,2013-01-21 07:53:00,
2013-01-21 02:03:00,-16.0,-21.0,-100.00,WNW,290,9.0,11.0,76,-99.99,,,-99.99,,2013-01-21 08:03:00,
2013-01-21 02:13:00,-16.0,-21.0,-100.00,WNW,290,9.0,11.0,76,-99.99,,,-99.99,,2013-01-21 08:13:00,
2013-01-21 02:23:00,-16.0,-21.0,-100.00,WNW,290,9.0,11.0,76,-99.99,,,-99.99,,2013-01-21 08:23:00,
2013-01-21 02:32:00,-16.0,-21.0,-100.00,WNW,290,9.0,11.0,76,-99.99,,,-99.99,,2013-01-21 08:32:00,
2013-01-21 03:03:00,-17.0,-22.0,-100.00,WNW,290,9.0,12.0,76,-99.99,,,-99.99,,2013-01-21 09:03:00,
2013-01-21 03:12:00,-17.0,-22.0,-100.00,WNW,290,9.0,12.0,76,-99.99,,,-99.99,,2013-01-21 09:12:00,
2013-01-21 03:23:00,-17.0,-22.0,-100.00,WNW,290,9.0,12.0,76,-99.99,,,-99.99,,2013-01-21 09:23:00,
2013-01-21 03:33:00,-17.0,-22.0,-100.00,WNW,290,9.0,12.0,76,-99.99,,,-99.99,,2013-01-21 09:33:00,
2013-01-21 04:02:00,-17.0,-22.0,-100.00,WNW,285,9.0,11.0,77,-99.99,,,-99.99,,2013-01-21 10:02:00,
2013-01-21 04:12:00,-17.0,-22.0,-100.00,WNW,285,9.0,11.0,77,-99.99,,,-99.99,,2013-01-21 10:12:00,
2013-01-21 04:22:00,-17.0,-22.0,-100.00,WNW,285,9.0,11.0,77,-99.99,,,-99.99,,2013-01-21 10:22:00,
2013-01-21 04:32:00,-17.0,-22.0,-100.00,WNW,285,9.0,11.0,77,-99.99,,,-99.99,,2013-01-21 10:32:00,
2013-01-21 05:03:00,-18.0,-23.0,-100.00,WNW,290,10.0,12.0,77,-99.99,,,-99.99,,2013-01-21 11:03:00,
2013-01-21 05:13:00,-18.0,-23.0,-100.00,WNW,290,10.0,12.0,77,-99.99,,,-99.99,,2013-01-21 11:13:00,
2013-01-21 05:23:00,-18.0,-23.0,-100.00,WNW,290,10.0,12.0,77,-99.99,,,-99.99,,2013-01-21 11:23:00,
2013-01-21 05:33:00,-18.0,-23.0,-100.00,WNW,290,9.0,12.0,77,-99.99,,,-99.99,,2013-01-21 11:33:00,
2013-01-21 05:43:00,-18.0,-23.0,-100.00,WNW,290,9.0,12.0,77,-99.99,,,-99.99,,2013-01-21 11:43:00,
2013-01-21 05:53:00,-18.0,-23.0,-100.00,WNW,290,9.0,12.0,77,-99.99,,,-99.99,,2013-01-21 11:53:00,
2013-01-21 06:02:00,-18.0,-23.0,-100.00,WNW,285,10.0,13.0,77,-99.99,,,-99.99,,2013-01-21 12:02:00,
2013-01-21 06:12:00,-18.0,-23.0,-100.00,WNW,285,10.0,13.0,77,-99.99,,,-99.99,,2013-01-21 12:12:00,
2013-01-21 06:22:00,-18.0,-23.0,-100.00,WNW,285,10.0,13.0,77,-99.99,,,-99.99,,2013-01-21 12:22:00,
2013-01-21 06:32:00,-18.0,-23.0,-100.00,WNW,290,11.0,15.0,76,-99.99,,,-99.99,,2013-01-21 12:32:00,
2013-01-21 06:43:00,-18.0,-23.0,-100.00,WNW,290,11.0,15.0,76,-99.99,,,-99.99,,2013-01-21 12:43:00,
2013-01-21 06:53:00,-18.0,-23.0,-100.00,WNW,290,11.0,15.0,76,-99.99,,,-99.99,,2013-01-21 12:53:00,
2013-01-21 07:02:00,-18.0,-23.0,-100.00,WNW,290,11.0,14.0,76,-99.99,,,-99.99,,2013-01-21 13:02:00,
2013-01-21 07:13:00,-18.0,-23.0,-100.00,WNW,290,11.0,14.0,76,-99.99,,,-99.99,,2013-01-21 13:13:00,
2013-01-21 07:23:00,-18.0,-23.0,-100.00,WNW,290,11.0,14.0,76,-99.99,,,-99.99,,2013-01-21 13:23:00,
2013-01-21 07:33:00,-18.0,-24.0,-100.00,WNW,295,9.0,12.0,76,-99.99,,,-99.99,,2013-01-21 13:33:00,
2013-01-21 07:43:00,-18.0,-24.0,-100.00,WNW,295,9.0,12.0,76,-99.99,,,-99.99,,2013-01-21 13:43:00,
2013-01-21 07:54:00,-18.0,-24.0,-100.00,WNW,295,9.0,12.0,76,-99.99,,,-99.99,,2013-01-21 13:54:00,
2013-01-21 08:03:00,-18.0,-23.0,-100.00,WNW,285,7.0,12.0,77,-99.99,,,-99.99,,2013-01-21 14:03:00,
2013-01-21 08:12:00,-18.0,-23.0,-100.00,WNW,285,7.0,12.0,77,-99.99,,,-99.99,,2013-01-21 14:12:00,
2013-01-21 08:23:00,-18.0,-23.0,-100.00,WNW,285,7.0,12.0,77,-99.99,,,-99.99,,2013-01-21 14:23:00,
2013-01-21 08:32:00,-18.0,-23.0,-100.00,WNW,290,9.0,12.0,77,-99.99,,,-99.99,,2013-01-21 14:32:00,
2013-01-21 08:43:00,-18.0,-23.0,-100.00,WNW,290,9.0,12.0,77,-99.99,,,-99.99,,2013-01-21 14:43:00,
2013-01-21 08:53:00,-18.0,-23.0,-100.00,WNW,290,9.0,12.0,77,-99.99,,,-99.99,,2013-01-21 14:53:00,
2013-01-21 09:03:00,-18.0,-23.0,-100.00,WNW,285,11.0,15.0,77,-99.99,,,-99.99,,2013-01-21 15:03:00,
2013-01-21 09:13:00,-18.0,-23.0,-100.00,WNW,285,11.0,15.0,77,-99.99,,,-99.99,,2013-01-21 15:13:00,
2013-01-21 09:23:00,-18.0,-23.0,-100.00,WNW,285,11.0,15.0,77,-99.99,,,-99.99,,2013-01-21 15:23:00,
2013-01-21 09:33:00,-16.0,-21.0,-100.00,WNW,290,12.0,17.0,76,-99.99,,,-99.99,,2013-01-21 15:33:00,
2013-01-21 09:43:00,-16.0,-21.0,-100.00,WNW,290,12.0,17.0,76,-99.99,,,-99.99,,2013-01-21 15:43:00,
2013-01-21 09:53:00,-16.0,-21.0,-100.00,WNW,290,12.0,17.0,76,-99.99,,,-99.99,,2013-01-21 15:53:00,
2013-01-21 10:12:00,-15.0,-21.0,-100.00,WNW,290,16.0,21.0,75,-99.99,,,-99.99,,2013-01-21 16:12:00,
2013-01-21 10:23:00,-15.0,-21.0,-100.00,WNW,290,16.0,21.0,75,-99.99,,,-99.99,,2013-01-21 16:23:00,
2013-01-21 10:33:00,-14.0,-20.0,-100.00,WNW,295,17.0,21.0,74,-99.99,,,-99.99,,2013-01-21 16:33:00,
2013-01-21 10:43:00,-14.0,-20.0,-100.00,WNW,295,17.0,21.0,74,-99.99,,,-99.99,,2013-01-21 16:43:00,
2013-01-21 10:53:00,-14.0,-20.0,-100.00,WNW,295,17.0,21.0,74,-99.99,,,-99.99,,2013-01-21 16:53:00,
2013-01-21 11:02:00,-13.0,-19.0,-100.00,WNW,300,16.0,21.0,73,-99.99,,,-99.99,,2013-01-21 17:02:00,
2013-01-21 11:12:00,-13.0,-19.0,-100.00,WNW,300,16.0,21.0,73,-99.99,,,-99.99,,2013-01-21 17:12:00,
2013-01-21 11:23:00,-13.0,-19.0,-100.00,WNW,300,16.0,21.0,73,-99.99,,,-99.99,,2013-01-21 17:23:00,
2013-01-21 11:33:00,-12.0,-19.0,-100.00,WNW,295,16.0,23.0,72,-99.99,,,-99.99,,2013-01-21 17:33:00,
2013-01-21 11:43:00,-12.0,-19.0,-100.00,WNW,295,16.0,23.0,72,-99.99,,,-99.99,,2013-01-21 17:43:00,
2013-01-21 11:53:00,-12.0,-19.0,-100.00,WNW,295,16.0,23.0,72,-99.99,,,-99.99,,2013-01-21 17:53:00,
2013-01-21 12:03:00,-11.0,-18.0,-100.00,WNW,295,17.0,23.0,72,-99.99,,,-99.99,,2013-01-21 18:03:00,
2013-01-21 12:12:00,-11.0,-18.0,-100.00,WNW,295,17.0,23.0,72,-99.99,,,-99.99,,2013-01-21 18:12:00,
2013-01-21 12:22:00,-11.0,-18.0,-100.00,WNW,295,17.0,23.0,72,-99.99,,,-99.99,,2013-01-21 18:22:00,
2013-01-21 12:33:00,-11.0,-17.0,-100.00,WNW,295,15.0,23.0,72,-99.99,,,-99.99,,2013-01-21 18:33:00,
2013-01-21 12:43:00,-11.0,-17.0,-100.00,WNW,295,15.0,23.0,72,-99.99,,,-99.99,,2013-01-21 18:43:00,
2013-01-21 12:53:00,-11.0,-17.0,-100.00,WNW,295,15.0,23.0,72,-99.99,,,-99.99,,2013-01-21 18:53:00,
2013-01-21 13:03:00,-10.0,-17.0,-100.00,WNW,295,13.0,21.0,71,-99.99,,,-99.99,,2013-01-21 19:03:00,
2013-01-21 13:12:00,-10.0,-17.0,-100.00,WNW,295,13.0,21.0,71,-99.99,,,-99.99,,2013-01-21 19:12:00,
2013-01-21 13:22:00,-10.0,-17.0,-100.00,WNW,295,13.0,21.0,71,-99.99,,,-99.99,,2013-01-21 19:22:00,
2013-01-21 13:33:00,-10.0,-17.0,-100.00,WNW,295,14.0,21.0,72,-99.99,,,-99.99,,2013-01-21 19:33:00,
2013-01-21 13:43:00,-10.0,-17.0,-100.00,WNW,295,14.0,21.0,72,-99.99,,,-99.99,,2013-01-21 19:43:00,
2013-01-21 13:53:00,-10.0,-17.0,-100.00,WNW,295,14.0,21.0,72,-99.99,,,-99.99,,2013-01-21 19:53:00,
2013-01-21 14:03:00,-10.0,-17.0,-100.00,NW,305,13.0,18.0,71,-99.99,,,-99.99,,2013-01-21 20:03:00,
2013-01-21 14:12:00,-10.0,-17.0,-100.00,NW,305,13.0,18.0,71,-99.99,,,-99.99,,2013-01-21 20:12:00,
2013-01-21 14:23:00,-10.0,-17.0,-100.00,NW,305,13.0,18.0,71,-99.99,,,-99.99,,2013-01-21 20:23:00,
2013-01-21 14:33:00,-9.0,-16.0,-100.00,NW,315,14.0,19.0,72,-99.99,,,-99.99,,2013-01-21 20:33:00,
2013-01-21 14:43:00,-9.0,-16.0,-100.00,NW,315,14.0,19.0,72,-99.99,,,-99.99,,2013-01-21 20:43:00,
2013-01-21 14:53:00,-9.0,-16.0,-100.00,NW,315,14.0,19.0,72,-99.99,,,-99.99,,2013-01-21 20:53:00,
2013-01-21 15:03:00,-10.0,-16.0,-100.00,NW,320,12.0,18.0,72,-99.99,,,-99.99,,2013-01-21 21:03:00,
2013-01-21 15:12:00,-10.0,-16.0,-100.00,NW,320,12.0,18.0,72,-99.99,,,-99.99,,2013-01-21 21:12:00,
2013-01-21 15:23:00,-10.0,-16.0,-100.00,NW,320,12.0,18.0,72,-99.99,,,-99.99,,2013-01-21 21:23:00,
2013-01-21 15:33:00,-9.0,-16.0,-100.00,NW,320,11.0,16.0,71,-99.99,,,-99.99,,2013-01-21 21:33:00,
2013-01-21 15:43:00,-9.0,-16.0,-100.00,NW,320,11.0,16.0,71,-99.99,,,-99.99,,2013-01-21 21:43:00,
2013-01-21 15:53:00,-9.0,-16.0,-100.00,NW,320,11.0,16.0,71,-99.99,,,-99.99,,2013-01-21 21:53:00,
2013-01-21 16:03:00,-9.0,-16.0,-100.00,WNW,300,10.0,15.0,70,-99.99,,,-99.99,,2013-01-21 22:03:00,
2013-01-21 16:12:00,-9.0,-16.0,-100.00,WNW,300,10.0,15.0,70,-99.99,,,-99.99,,2013-01-21 22:12:00,
2013-01-21 16:23:00,-9.0,-16.0,-100.00,WNW,300,10.0,15.0,70,-99.99,,,-99.99,,2013-01-21 22:23:00,
2013-01-21 16:33:00,-9.0,-16.0,-100.00,NW,310,9.0,13.0,70,-99.99,,,-99.99,,2013-01-21 22:33:00,
2013-01-21 16:43:00,-9.0,-16.0,-100.00,NW,310,9.0,13.0,70,-99.99,,,-99.99,,2013-01-21 22:43:00,
2013-01-21 16:53:00,-9.0,-16.0,-100.00,NW,310,9.0,13.0,70,-99.99,,,-99.99,,2013-01-21 22:53:00,
2013-01-21 17:03:00,-9.0,-17.0,-100.00,WNW,295,9.0,13.0,70,-99.99,,,-99.99,,2013-01-21 23:03:00,
2013-01-21 17:13:00,-9.0,-17.0,-100.00,WNW,295,9.0,13.0,70,-99.99,,,-99.99,,2013-01-21 23:13:00,
2013-01-21 17:23:00,-9.0,-17.0,-100.00,WNW,295,9.0,13.0,70,-99.99,,,-99.99,,2013-01-21 23:23:00,
2013-01-21 17:33:00,-10.0,-17.0,-100.00,WNW,290,6.0,9.0,71,-99.99,,,-99.99,,2013-01-21 23:33:00,
2013-01-21 17:43:00,-10.0,-17.0,-100.00,WNW,290,6.0,9.0,71,-99.99,,,-99.99,,2013-01-21 23:43:00,
2013-01-21 17:53:00,-10.0,-17.0,-100.00,WNW,290,6.0,9.0,71,-99.99,,,-99.99,,2013-01-21 23:53:00,
2013-01-21 18:02:00,-12.0,-18.0,-100.00,West,280,7.0,9.0,73,-99.99,,,-99.99,,2013-01-22 00:02:00,
2013-01-21 18:12:00,-12.0,-18.0,-100.00,West,280,7.0,9.0,73,-99.99,,,-99.99,,2013-01-22 00:12:00,
2013-01-21 18:22:00,-12.0,-18.0,-100.00,West,280,7.0,9.0,73,-99.99,,,-99.99,,2013-01-22 00:22:00,
2013-01-21 18:33:00,-13.0,-19.0,-100.00,West,280,7.0,10.0,75,-99.99,,,-99.99,,2013-01-22 00:33:00,
2013-01-21 18:43:00,-13.0,-19.0,-100.00,West,280,7.0,10.0,75,-99.99,,,-99.99,,2013-01-22 00:43:00,
2013-01-21 18:53:00,-13.0,-19.0,-100.00,West,280,7.0,10.0,75,-99.99,,,-99.99,,2013-01-22 00:53:00,
2013-01-21 19:02:00,-14.0,-19.0,-100.00,West,280,6.0,7.0,76,-99.99,,,-99.99,,2013-01-22 01:02:00,
2013-01-21 19:12:00,-14.0,-19.0,-100.00,West,280,6.0,7.0,76,-99.99,,,-99.99,,2013-01-22 01:12:00,
2013-01-21 19:23:00,-14.0,-19.0,-100.00,West,280,6.0,7.0,76,-99.99,,,-99.99,,2013-01-22 01:23:00,
2013-01-21 19:32:00,-14.0,-19.0,-100.00,West,280,6.0,7.0,76,-99.99,,,-99.99,,2013-01-22 01:32:00,
2013-01-21 20:02:00,-15.0,-20.0,-100.00,West,280,6.0,7.0,77,-99.99,,,-99.99,,2013-01-22 02:02:00,
2013-01-21 20:12:00,-15.0,-20.0,-100.00,West,280,6.0,7.0,77,-99.99,,,-99.99,,2013-01-22 02:12:00,
2013-01-21 20:22:00,-15.0,-20.0,-100.00,West,280,6.0,7.0,77,-99.99,,,-99.99,,2013-01-22 02:22:00,
2013-01-21 20:32:00,-15.0,-20.0,-100.00,West,275,6.0,7.0,78,-99.99,,,-99.99,,2013-01-22 02:32:00,
2013-01-21 20:43:00,-15.0,-20.0,-100.00,West,275,6.0,7.0,78,-99.99,,,-99.99,,2013-01-22 02:43:00,
2013-01-21 20:53:00,-15.0,-20.0,-100.00,West,275,6.0,7.0,78,-99.99,,,-99.99,,2013-01-22 02:53:00,
2013-01-21 21:02:00,-16.0,-21.0,-100.00,WNW,290,5.0,7.0,79,-99.99,,,-99.99,,2013-01-22 03:02:00,
2013-01-21 21:12:00,-16.0,-21.0,-100.00,WNW,290,5.0,7.0,79,-99.99,,,-99.99,,2013-01-22 03:12:00,
2013-01-21 21:22:00,-16.0,-21.0,-100.00,WNW,290,5.0,7.0,79,-99.99,,,-99.99,,2013-01-22 03:22:00,
2013-01-21 21:32:00,-16.0,-20.0,-100.00,WNW,285,6.0,8.0,79,-99.99,,,-99.99,,2013-01-22 03:32:00,
2013-01-21 21:42:00,-16.0,-20.0,-100.00,WNW,285,6.0,8.0,79,-99.99,,,-99.99,,2013-01-22 03:42:00,
2013-01-21 21:53:00,-16.0,-20.0,-100.00,WNW,285,6.0,8.0,79,-99.99,,,-99.99,,2013-01-22 03:53:00,
2013-01-21 22:02:00,-15.0,-20.0,-100.00,WNW,295,6.0,9.0,79,-99.99,,,-99.99,,2013-01-22 04:02:00,
2013-01-21 22:12:00,-15.0,-20.0,-100.00,WNW,295,6.0,9.0,79,-99.99,,,-99.99,,2013-01-22 04:12:00,
2013-01-21 22:22:00,-15.0,-20.0,-100.00,WNW,295,6.0,9.0,79,-99.99,,,-99.99,,2013-01-22 04:22:00,
2013-01-21 22:32:00,-16.0,-21.0,-100.00,West,280,5.0,8.0,78,-99.99,,,-99.99,,2013-01-22 04:32:00,
2013-01-21 22:42:00,-16.0,-21.0,-100.00,West,280,5.0,8.0,78,-99.99,,,-99.99,,2013-01-22 04:42:00,
2013-01-21 22:52:00,-16.0,-21.0,-100.00,West,280,5.0,8.0,78,-99.99,,,-99.99,,2013-01-22 04:52:00,
2013-01-21 23:04:00,-17.0,-21.0,-100.00,West,280,4.0,6.0,79,-99.99,,,-99.99,,2013-01-22 05:04:00,
2013-01-21 23:12:00,-17.0,-21.0,-100.00,West,280,4.0,6.0,79,-99.99,,,-99.99,,2013-01-22 05:12:00,
2013-01-21 23:22:00,-17.0,-21.0,-100.00,West,280,4.0,6.0,79,-99.99,,,-99.99,,2013-01-22 05:22:00,
2013-01-21 23:32:00,-16.0,-21.0,-100.00,WNW,290,4.0,6.0,79,-99.99,,,-99.99,,2013-01-22 05:32:00,
2013-01-21 23:42:00,-16.0,-21.0,-100.00,WNW,290,4.0,6.0,79,-99.99,,,-99.99,,2013-01-22 05:42:00,
2013-01-21 23:53:00,-16.0,-21.0,-100.00,WNW,290,4.0,6.0,79,-99.99,,,-99.99,,2013-01-22 05:53:00,